GW1230 Weather Reports


Display with metric or nautical units.
time (UTC)temp
F
wind
direction
speed
MPH
gust
MPH
rain 1hr
in
rain 24hr
in
rain mn
in
humidity
%
barometer
mb
20260510105633 51 317 0.0 0.0 0.00 0.00 0.00 89 1017.0
20260510105132 51 297 0.0 0.0 0.00 0.00 0.00 90 1017.0
20260510104630 51 313 0.0 0.0 0.00 0.00 0.00 90 1017.0
20260510104126 51 323 0.0 0.0 0.00 0.00 0.00 90 1016.8
20260510103623 51 309 0.0 0.0 0.00 0.00 0.00 90 1016.9
20260510103119 51 309 0.0 0.0 0.00 0.00 0.00 90 1016.9
20260510102614 51 301 0.0 0.0 0.00 0.00 0.00 89 1016.7
20260510102110 52 303 0.0 0.0 0.00 0.00 0.00 89 1016.7
20260510101609 52 297 0.0 1.0 0.00 0.00 0.00 89 1016.6
20260510101107 52 299 1.0 2.0 0.00 0.00 0.00 89 1016.7
20260510100602 52 280 1.0 1.0 0.00 0.00 0.00 89 1016.5
20260510100100 52 287 0.0 0.0 0.00 0.00 0.00 88 1016.5
20260510095556 52 299 0.0 0.0 0.00 0.00 0.00 87 1016.3
20260510095055 52 303 0.0 0.0 0.00 0.00 0.00 87 1016.3
20260510094550 53 305 0.0 0.0 0.00 0.00 0.00 87 1016.4
20260510094045 53 305 0.0 1.0 0.00 0.00 0.00 87 1016.3
20260510093542 53 313 1.0 1.0 0.00 0.00 0.00 87 1016.4
20260510093039 53 317 1.0 2.0 0.00 0.00 0.00 87 1016.3
20260510092536 53 301 2.0 3.0 0.00 0.00 0.00 87 1016.4
20260510092035 53 317 1.0 1.0 0.00 0.00 0.00 87 1016.2
20260510091532 53 311 2.0 2.0 0.00 0.00 0.00 86 1016.3
20260510091028 53 305 1.0 1.0 0.00 0.00 0.00 86 1016.3
20260510090520 53 311 0.0 1.0 0.00 0.00 0.00 86 1016.2
20260510090016 53 304 0.0 1.0 0.00 0.00 0.00 85 1016.0
20260510085516 54 308 1.0 2.0 0.00 0.00 0.00 85 1016.1
20260510085012 54 318 1.0 2.0 0.00 0.00 0.00 85 1016.2
20260510084509 54 317 2.0 2.0 0.00 0.00 0.00 84 1016.1
20260510084005 54 313 1.0 2.0 0.00 0.00 0.00 84 1016.2
20260510083502 54 335 2.0 3.0 0.00 0.00 0.00 84 1016.2
20260510082957 54 329 1.0 1.0 0.00 0.00 0.00 85 1015.8
20260510082455 54 312 2.0 2.0 0.00 0.00 0.00 85 1016.0
20260510081955 54 308 2.0 2.0 0.00 0.00 0.00 85 1015.9
20260510081451 54 293 0.0 1.0 0.00 0.00 0.00 85 1016.1
20260510080947 55 314 2.0 2.0 0.00 0.00 0.00 84 1016.0
20260510080445 55 305 1.0 1.0 0.00 0.00 0.00 83 1016.3
20260510075942 55 308 2.0 2.0 0.00 0.00 0.00 83 1016.0
20260510075440 55 298 0.0 1.0 0.00 0.00 0.00 82 1016.0
20260510074937 55 300 0.0 0.0 0.00 0.00 0.00 82 1016.0
20260510074434 55 300 0.0 0.0 0.00 0.00 0.00 81 1015.9
20260510073930 55 312 0.0 0.0 0.00 0.00 0.00 79 1016.0
20260510073426 56 306 0.0 0.0 0.00 0.00 0.00 78 1015.9
20260510072923 56 308 0.0 0.0 0.00 0.00 0.00 77 1016.0
20260510072420 56 326 2.0 2.0 0.00 0.00 0.00 77 1016.2
20260510071915 56 304 0.0 0.0 0.00 0.00 0.00 79 1015.9
20260510071412 56 296 0.0 0.0 0.00 0.00 0.00 79 1016.0
20260510070910 56 290 0.0 0.0 0.00 0.00 0.00 80 1016.1
20260510070407 56 286 0.0 0.0 0.00 0.00 0.00 80 1016.2
20260510065902 56 278 0.0 0.0 0.00 0.00 0.00 80 1016.0
20260510065359 56 288 0.0 0.0 0.00 0.00 0.00 78 1015.9
20260510064855 57 280 2.0 2.0 0.00 0.00 0.00 78 1015.8
20260510064354 57 291 1.0 1.0 0.00 0.00 0.00 77 1015.9
20260510063849 57 347 1.0 2.0 0.00 0.00 0.00 76 1015.8
20260510063346 57 325 2.0 2.0 0.00 0.00 0.00 75 1015.9
20260510062843 57 292 0.0 0.0 0.00 0.00 0.00 75 1016.0
20260510062338 57 293 2.0 3.0 0.00 0.00 0.00 75 1016.1
20260510061834 57 292 1.0 1.0 0.00 0.00 0.00 75 1016.1
20260510061331 57 275 1.0 2.0 0.00 0.00 0.00 76 1016.0
20260510060827 57 299 0.0 1.0 0.00 0.00 0.00 77 1016.0
20260510060324 57 308 0.0 1.0 0.00 0.00 0.00 77 1016.1
20260510055821 57 298 0.0 0.0 0.00 0.00 0.00 78 1016.1
20260510055320 57 289 0.0 0.0 0.00 0.00 0.00 79 1016.3
20260510054819 57 302 0.0 0.0 0.00 0.00 0.00 78 1016.0
20260510054315 57 297 0.0 0.0 0.00 0.00 0.00 78 1015.9
20260510053810 57 287 1.0 1.0 0.00 0.00 0.00 79 1016.0
20260510053305 58 289 0.0 0.0 0.00 0.00 0.00 78 1016.0
20260510052802 58 292 0.0 0.0 0.00 0.00 0.00 77 1016.0
20260510052258 58 277 2.0 2.0 0.00 0.00 0.00 76 1016.0
20260510051754 59 293 1.0 1.0 0.00 0.00 0.00 77 1015.8
20260510051251 58 287 1.0 1.0 0.00 0.00 0.00 76 1016.2
20260510050747 58 313 0.0 0.0 0.00 0.00 0.00 76 1016.0
20260510050239 58 305 0.0 0.0 0.00 0.00 0.00 77 1016.0
20260510045736 58 302 0.0 0.0 0.00 0.00 0.00 77 1016.0
20260510045232 58 309 0.0 1.0 0.00 0.00 0.00 78 1016.1
20260510044729 58 306 1.0 2.0 0.00 0.00 0.00 78 1016.0
20260510044227 59 299 0.0 0.0 0.00 0.00 0.00 78 1015.8
20260510043722 59 295 0.0 0.0 0.00 0.00 0.00 78 1015.8
20260510043219 59 286 0.0 0.0 0.00 0.00 0.00 78 1016.0
20260510042716 59 294 0.0 0.0 0.00 0.00 0.00 77 1015.9
20260510042212 59 307 0.0 0.0 0.00 0.00 0.00 77 1015.7
20260510041709 59 300 2.0 2.0 0.00 0.00 0.00 77 1015.8
20260510041207 59 278 2.0 2.0 0.00 0.00 0.00 76 1015.8
20260510040703 60 288 0.0 1.0 0.00 0.00 0.00 76 1015.8
20260510040200 60 298 2.0 3.0 0.00 0.00 0.00 76 1015.6
20260510035656 60 311 0.0 0.0 0.00 0.00 0.00 75 1015.7
20260510035151 60 291 1.0 1.0 0.00 0.00 0.00 74 1016.0
20260510034648 61 291 2.0 2.0 0.00 0.00 0.00 74 1015.9
20260510034145 61 302 2.0 2.0 0.00 0.00 0.00 74 1015.7
20260510033641 61 298 0.0 1.0 0.00 0.00 0.00 73 1015.7
20260510033139 61 297 0.0 0.0 0.00 0.00 0.00 73 1015.8
20260510032635 61 299 1.0 1.0 0.00 0.00 0.00 73 1015.7
20260510032131 61 299 0.0 0.0 0.00 0.00 0.00 72 1015.7
20260510031626 61 302 0.0 0.0 0.00 0.00 0.00 72 1015.8
20260510031123 62 304 0.0 0.0 0.00 0.00 0.00 71 1015.9
20260510030617 62 308 1.0 2.0 0.00 0.00 0.00 71 1015.9
20260510030115 62 272 1.0 2.0 0.00 0.00 0.00 71 1016.0
20260510025612 62 307 0.0 0.0 0.00 0.00 0.00 70 1015.8
20260510025110 62 312 0.0 0.0 0.00 0.00 0.00 70 1015.8
20260510024606 63 336 0.0 2.0 0.00 0.00 0.00 69 1015.9
20260510024103 63 301 0.0 0.0 0.00 0.00 0.00 69 1016.0
20260510023559 63 301 0.0 0.0 0.00 0.00 0.00 68 1016.1
20260510023057 63 296 1.0 1.0 0.00 0.00 0.00 68 1016.1
20260510022556 63 280 0.0 0.0 0.00 0.00 0.00 67 1016.2
20260510022055 64 307 0.0 0.0 0.00 0.00 0.00 67 1016.2
20260510021547 64 299 4.0 5.0 0.00 0.00 0.00 66 1016.2
20260510021044 64 353 3.0 5.0 0.00 0.00 0.00 66 1016.2
20260510020538 64 345 3.0 3.0 0.00 0.00 0.00 65 1016.5
20260510020034 65 338 1.0 1.0 0.00 0.00 0.00 64 1016.5
20260510015530 65 321 3.0 3.0 0.00 0.00 0.00 64 1016.3
20260510015026 65 308 1.0 2.0 0.00 0.00 0.00 64 1016.3
20260510014523 64 320 1.0 1.0 0.00 0.00 0.00 65 1016.5
20260510014020 64 317 2.0 3.0 0.00 0.00 0.00 65 1016.8
20260510013515 64 311 0.0 1.0 0.00 0.00 0.00 65 1017.0
20260510013011 64 21 6.0 7.0 0.00 0.00 0.00 66 1016.8
20260510012505 65 350 8.0 10.0 0.00 0.00 0.00 64 1017.2
20260510012001 65 333 4.0 5.0 0.00 0.00 0.00 64 1016.9
20260510011455 64 327 5.0 5.0 0.00 0.00 0.00 65 1016.9
20260510010951 64 332 5.0 8.0 0.00 0.00 0.00 66 1017.1
20260510010449 64 333 3.0 5.0 0.00 0.00 0.00 67 1017.0
20260510005946 64 330 2.0 2.0 0.00 0.00 0.00 66 1017.0
20260510005442 64 322 4.0 6.0 0.00 0.00 0.00 66 1017.1
20260510004939 65 316 1.0 2.0 0.00 0.00 0.00 65 1017.0
20260510004436 65 340 4.0 6.0 0.00 0.00 0.00 66 1017.2
20260510003934 65 337 6.0 7.0 0.00 0.00 0.00 65 1017.3
20260510003431 65 293 2.0 2.0 0.00 0.00 0.00 65 1017.3
20260510002930 65 315 4.0 5.0 0.00 0.00 0.00 64 1017.1
20260510002427 66 347 5.0 7.0 0.00 0.00 0.00 64 1017.5
20260510001924 66 324 4.0 5.0 0.00 0.00 0.00 63 1017.4
20260510001421 66 347 3.0 5.0 0.00 0.00 0.00 63 1017.5
20260510000919 67 345 4.0 5.0 0.00 0.00 0.00 60 1017.6
20260510000415 66 348 1.0 2.0 0.00 0.00 0.00 61 1017.6
20260509235911 66 335 2.0 2.0 0.00 0.00 0.00 61 1017.6
20260509235408 66 338 4.0 5.0 0.00 0.00 0.00 60 1017.9
20260509234904 67 302 3.0 5.0 0.00 0.00 0.00 58 1017.8
20260509234402 68 314 4.0 5.0 0.00 0.00 0.00 54 1017.8
20260509233859 67 308 2.0 3.0 0.00 0.00 0.00 54 1018.0
20260509233357 68 311 3.0 3.0 0.00 0.00 0.00 52 1017.7
20260509232852 68 348 3.0 5.0 0.00 0.00 0.00 52 1018.0
20260509232351 68 293 5.0 7.0 0.00 0.00 0.00 51 1017.8
20260509231846 68 314 5.0 6.0 0.00 0.00 0.00 51 1018.1
20260509231343 68 41 2.0 2.0 0.00 0.00 0.00 50 1018.1
20260509230841 67 4 4.0 5.0 0.00 0.00 0.00 52 1017.9
20260509230332 67 347 3.0 3.0 0.00 0.00 0.00 52 1018.1
20260509225827 68 318 4.0 5.0 0.00 0.00 0.00 52 1018.0
20260509225325 68 321 5.0 7.0 0.00 0.00 0.00 50 1018.5
20260509224821 67 355 1.0 2.0 0.00 0.00 0.00 53 1018.5
20260509224317 68 299 2.0 3.0 0.00 0.00 0.00 52 1018.7
20260509223814 67 278 2.0 2.0 0.00 0.00 0.00 53 1018.6
20260509223310 66 294 2.0 2.0 0.00 0.00 0.00 56 1018.8
20260509222807 67 266 4.0 5.0 0.00 0.00 0.00 53 1018.7
20260509222306 67 309 3.0 3.0 0.00 0.00 0.00 53 1018.8
20260509221758 67 323 7.0 7.0 0.00 0.00 0.00 54 1018.8
20260509221256 67 8 6.0 9.0 0.00 0.00 0.00 53 1018.9
20260509220751 68 5 5.0 7.0 0.00 0.00 0.00 54 1018.7
20260509220248 68 342 4.0 6.0 0.00 0.00 0.00 54 1018.9
20260509215743 66 355 6.0 7.0 0.00 0.00 0.00 55 1018.9
20260509215240 67 309 1.0 2.0 0.00 0.00 0.00 53 1019.0
20260509214737 68 317 3.0 3.0 0.00 0.00 0.00 53 1018.9
20260509214234 68 337 2.0 5.0 0.00 0.00 0.00 53 1018.9
20260509213731 67 341 3.0 6.0 0.00 0.00 0.00 53 1019.0
20260509213226 66 323 4.0 7.0 0.00 0.00 0.00 54 1018.8
20260509212724 66 320 3.0 6.0 0.00 0.00 0.00 53 1018.9
20260509212221 66 338 4.0 6.0 0.00 0.00 0.00 51 1019.2
20260509211717 67 19 1.0 2.0 0.00 0.00 0.00 53 1019.4
20260509211214 68 332 5.0 9.0 0.00 0.00 0.00 52 1019.3
20260509210710 69 282 3.0 3.0 0.00 0.00 0.00 52 1019.3
20260509210208 67 310 3.0 3.0 0.00 0.00 0.00 56 1019.3
20260509205707 68 301 4.0 6.0 0.00 0.00 0.00 55 1019.5
20260509205207 68 272 2.0 2.0 0.00 0.00 0.00 56 1019.2
20260509204703 67 314 2.0 2.0 0.00 0.00 0.00 58 1019.3
20260509204200 67 313 5.0 6.0 0.00 0.00 0.00 58 1019.3
20260509203656 66 282 4.0 5.0 0.00 0.00 0.00 60 1019.5
20260509203154 66 261 3.0 3.0 0.00 0.00 0.00 60 1019.3
20260509202650 66 4 5.0 8.0 0.00 0.00 0.00 61 1019.5
20260509202144 66 332 2.0 3.0 0.00 0.00 0.00 62 1019.5
20260509201640 66 287 4.0 6.0 0.00 0.00 0.00 61 1019.5
20260509201137 66 199 4.0 5.0 0.00 0.00 0.00 63 1019.7
20260509200633 66 244 6.0 7.0 0.00 0.00 0.00 62 1019.6
20260509200128 65 303 4.0 6.0 0.00 0.00 0.00 63 1019.8
20260509195624 66 268 7.0 10.0 0.00 0.00 0.00 62 1019.8
20260509195119 66 300 2.0 3.0 0.00 0.00 0.00 63 1019.8
20260509194619 67 299 4.0 7.0 0.00 0.00 0.00 60 1020.0
20260509194117 67 247 5.0 7.0 0.00 0.00 0.00 60 1020.1
20260509193612 68 294 4.0 6.0 0.00 0.00 0.00 59 1020.2
20260509193108 65 317 2.0 3.0 0.00 0.00 0.00 64 1020.3
20260509192605 64 246 1.0 2.0 0.00 0.00 0.00 65 1020.4
20260509192100 65 346 2.0 3.0 0.00 0.00 0.00 64 1020.4
20260509191555 65 294 4.0 5.0 0.00 0.00 0.00 65 1020.4
20260509191051 66 298 2.0 7.0 0.00 0.00 0.00 63 1020.7
20260509190548 66 281 4.0 5.0 0.00 0.00 0.00 65 1020.7
20260509190046 64 268 3.0 3.0 0.00 0.00 0.00 66 1020.7
20260509185543 65 225 4.0 5.0 0.00 0.00 0.00 65 1020.6
20260509185039 64 239 1.0 1.0 0.00 0.00 0.00 67 1020.8
20260509184538 65 308 3.0 3.0 0.00 0.00 0.00 66 1020.8
20260509184033 63 286 1.0 1.0 0.00 0.00 0.00 68 1020.9
20260509183529 63 254 4.0 6.0 0.00 0.00 0.00 68 1020.9
20260509183025 63 203 3.0 3.0 0.00 0.00 0.00 68 1020.8
20260509182521 63 253 3.0 3.0 0.00 0.00 0.00 67 1020.8
20260509182018 62 283 2.0 3.0 0.00 0.00 0.00 70 1021.1
20260509181516 64 285 4.0 6.0 0.00 0.00 0.00 69 1020.8
20260509181010 64 219 2.0 2.0 0.00 0.00 0.00 66 1020.8
20260509180503 62 282 1.0 1.0 0.00 0.00 0.00 73 1021.0
20260509180002 62 278 4.0 5.0 0.00 0.00 0.00 72 1021.1
20260509175457 62 258 3.0 5.0 0.00 0.00 0.00 71 1020.9
20260509174954 62 311 1.0 2.0 0.00 0.00 0.00 72 1021.2
20260509174450 61 318 1.0 2.0 0.00 0.00 0.00 74 1021.2
20260509173944 61 339 2.0 2.0 0.00 0.00 0.00 74 1021.3
20260509173439 61 308 4.0 5.0 0.00 0.00 0.00 73 1021.5
20260509172936 62 256 2.0 3.0 0.00 0.00 0.00 72 1021.3
20260509172433 62 346 3.0 3.0 0.00 0.00 0.00 72 1021.3
20260509171929 62 252 4.0 6.0 0.00 0.00 0.00 69 1021.2
20260509171425 61 222 1.0 1.0 0.00 0.00 0.00 69 1021.2
20260509170921 60 196 1.0 1.0 0.00 0.00 0.00 70 1021.3
20260509170417 60 129 4.0 5.0 0.00 0.00 0.00 69 1021.2
20260509165913 60 177 3.0 3.0 0.00 0.00 0.00 71 1021.2
20260509165407 59 92 4.0 6.0 0.00 0.00 0.00 72 1021.4
20260509164903 61 120 2.0 7.0 0.00 0.00 0.00 69 1021.3
20260509164359 59 85 1.0 2.0 0.00 0.00 0.00 73 1021.6
20260509163855 59 114 3.0 3.0 0.00 0.00 0.00 75 1021.3
20260509163352 59 228 1.0 1.0 0.00 0.00 0.00 77 1021.6
20260509162852 59 186 3.0 3.0 0.00 0.00 0.00 76 1021.5
20260509162350 58 198 1.0 2.0 0.00 0.00 0.00 78 1021.5
20260509161846 58 121 5.0 6.0 0.00 0.00 0.00 79 1021.6
20260509161342 58 192 2.0 2.0 0.00 0.00 0.00 78 1021.5
20260509160838 57 200 2.0 2.0 0.00 0.00 0.00 80 1021.7
20260509160334 57 167 3.0 5.0 0.00 0.00 0.00 79 1021.8
20260509155829 58 143 0.0 0.0 0.00 0.00 0.00 79 1022.0
20260509155326 57 117 4.0 5.0 0.00 0.00 0.00 80 1021.7
20260509154823 56 133 3.0 3.0 0.00 0.00 0.00 82 1021.9
20260509154319 56 149 2.0 3.0 0.00 0.00 0.00 82 1021.9
20260509153816 57 144 4.0 5.0 0.00 0.00 0.00 81 1021.9
20260509153313 55 155 1.0 1.0 0.00 0.00 0.00 85 1022.0
20260509152810 55 118 3.0 3.0 0.00 0.00 0.00 86 1021.8
20260509152307 55 160 3.0 5.0 0.00 0.00 0.00 85 1021.8
20260509151803 55 145 4.0 6.0 0.00 0.00 0.00 85 1021.8
20260509151259 55 139 3.0 5.0 0.00 0.00 0.00 86 1022.1
20260509150758 55 135 2.0 3.0 0.00 0.00 0.00 86 1022.3
20260509150255 56 197 3.0 3.0 0.00 0.00 0.00 84 1022.0
20260509145752 55 46 0.0 1.0 0.00 0.00 0.00 87 1022.4
20260509145252 55 122 2.0 2.0 0.00 0.00 0.00 87 1022.4
20260509144749 54 69 0.0 0.0 0.00 0.00 0.00 88 1022.4
20260509144245 54 145 5.0 5.0 0.00 0.00 0.00 87 1022.4
20260509143743 55 81 3.0 3.0 0.00 0.00 0.00 87 1022.3
20260509143240 54 67 0.0 0.0 0.00 0.00 0.00 87 1022.1
20260509142736 54 77 2.0 2.0 0.00 0.00 0.00 88 1022.2
20260509142232 54 133 1.0 2.0 0.00 0.00 0.00 86 1022.3
20260509141728 55 45 1.0 1.0 0.00 0.00 0.00 86 1022.5
20260509141226 54 42 0.0 0.0 0.00 0.00 0.00 88 1022.5
20260509140722 54 45 1.0 1.0 0.00 0.00 0.00 89 1022.5
20260509140222 53 41 0.0 0.0 0.00 0.00 0.00 90 1022.4
20260509135716 53 47 1.0 1.0 0.00 0.00 0.00 91 1022.4
20260509135214 52 38 1.0 1.0 0.00 0.00 0.00 92 1022.4
20260509134711 51 46 1.0 2.0 0.00 0.00 0.00 93 1022.5
20260509134208 51 355 0.0 0.0 0.00 0.00 0.00 94 1022.5
20260509133705 51 18 1.0 2.0 0.00 0.00 0.00 94 1022.4
20260509133202 50 36 1.0 1.0 0.00 0.00 0.00 95 1022.4
20260509132701 50 11 0.0 0.0 0.00 0.00 0.00 95 1022.5
20260509132159 50 337 0.0 0.0 0.00 0.00 0.00 95 1022.5
20260509131655 50 309 0.0 0.0 0.00 0.00 0.00 95 1022.4
20260509131152 49 308 0.0 0.0 0.00 0.00 0.00 95 1022.2
20260509130647 49 298 0.0 0.0 0.00 0.00 0.00 95 1022.3
20260509130144 49 300 0.0 0.0 0.00 0.00 0.00 95 1022.2
20260509125640 49 312 0.0 0.0 0.00 0.00 0.00 95 1022.3
20260509125137 49 319 0.0 0.0 0.00 0.00 0.00 95 1022.1
20260509124634 49 320 0.0 0.0 0.00 0.00 0.00 95 1022.3
20260509124131 49 342 0.0 0.0 0.00 0.00 0.00 95 1022.4
20260509123629 49 13 0.0 0.0 0.00 0.00 0.00 95 1022.3
20260509123125 49 340 0.0 0.0 0.00 0.00 0.00 94 1022.4
20260509122621 49 324 0.0 0.0 0.00 0.00 0.00 94 1022.3
20260509122119 50 303 0.0 0.0 0.00 0.00 0.00 94 1022.3
20260509121615 50 303 0.0 0.0 0.00 0.00 0.00 94 1022.5
20260509121113 50 296 0.0 0.0 0.00 0.00 0.00 94 1022.5
20260509120611 50 287 0.0 0.0 0.00 0.00 0.00 94 1022.4
20260509120109 50 280 0.0 0.0 0.00 0.00 0.00 93 1022.4
20260509115606 50 279 0.0 0.0 0.00 0.00 0.00 93 1022.5
20260509115103 50 277 0.0 0.0 0.00 0.00 0.00 93 1022.2
20260509114601 50 274 0.0 0.0 0.00 0.00 0.00 93 1022.7
20260509114100 50 275 1.0 1.0 0.00 0.00 0.00 93 1022.5
20260509113558 51 265 2.0 2.0 0.00 0.00 0.00 93 1022.6
20260509113055 51 271 1.0 2.0 0.00 0.00 0.00 93 1022.5
20260509112551 51 272 2.0 2.0 0.00 0.00 0.00 93 1022.4
20260509112049 51 272 0.0 0.0 0.00 0.00 0.00 93 1022.5
20260509111546 51 279 0.0 0.0 0.00 0.00 0.00 92 1022.4
20260509111043 50 289 0.0 0.0 0.00 0.00 0.00 92 1022.5
20260509110540 50 291 0.0 0.0 0.00 0.00 0.00 92 1022.8
20260509110037 50 281 0.0 0.0 0.00 0.00 0.00 92 1022.6